| time (UTC) | temp F | wind direction | speed knots | gust knots | rain 1hr in | rain 24hr in | rain mn in | humidity % | barometer mb |
| 20260509004517 | 77 | 341 | 2.6 | 7.0 | 0.00 | 0.00 | 0.00 | 20 | 1005.6 |
| 20260509003007 | 77 | 329 | 3.5 | 7.0 | 0.00 | 0.00 | 0.00 | 22 | 1005.6 |
| 20260509001606 | 77 | 331 | 4.3 | 10.4 | 0.00 | 0.00 | 0.00 | 21 | 1005.6 |
| 20260509000015 | 76 | 313 | 5.2 | 10.4 | 0.00 | 0.00 | 0.00 | 22 | 1005.8 |
| 20260508234514 | 77 | 334 | 6.1 | 11.3 | 0.00 | 0.00 | 0.00 | 22 | 1005.9 |
| 20260508233012 | 77 | 360 | 3.5 | 9.6 | 0.00 | 0.00 | 0.00 | 22 | 1005.8 |
| 20260508231503 | 77 | 360 | 6.1 | 11.3 | 0.00 | 0.00 | 0.00 | 23 | 1006.0 |
| 20260508230100 | 77 | 350 | 6.1 | 12.2 | 0.00 | 0.00 | 0.00 | 22 | 1006.0 |
| 20260508224547 | 76 | 321 | 7.0 | 14.8 | 0.00 | 0.00 | 0.00 | 24 | 1006.1 |
| 20260508223044 | 77 | 355 | 8.7 | 13.9 | 0.00 | 0.00 | 0.00 | 22 | 1006.5 |
| 20260508221537 | 77 | 351 | 7.8 | 13.9 | 0.00 | 0.00 | 0.00 | 22 | 1006.7 |
| 20260508220023 | 77 | 336 | 6.1 | 11.3 | 0.00 | 0.00 | 0.00 | 24 | 1006.9 |
| 20260508214515 | 76 | 325 | 9.6 | 17.4 | 0.00 | 0.00 | 0.00 | 22 | 1006.9 |
| 20260508213004 | 76 | 343 | 10.4 | 19.1 | 0.00 | 0.00 | 0.00 | 23 | 1007.1 |
| 20260508211557 | 75 | 9 | 7.8 | 16.5 | 0.00 | 0.00 | 0.00 | 25 | 1007.5 |
| 20260508210057 | 76 | 360 | 10.4 | 16.5 | 0.00 | 0.00 | 0.00 | 23 | 1007.5 |
| 20260508204542 | 76 | 351 | 9.6 | 14.8 | 0.00 | 0.00 | 0.00 | 24 | 1007.7 |
| 20260508203035 | 76 | 333 | 9.6 | 15.6 | 0.00 | 0.00 | 0.00 | 27 | 1007.9 |
| 20260508201525 | 75 | 333 | 8.7 | 17.4 | 0.00 | 0.00 | 0.00 | 25 | 1007.9 |
| 20260508200017 | 75 | 5 | 10.4 | 16.5 | 0.00 | 0.00 | 0.00 | 25 | 1008.0 |
| 20260508194516 | 74 | 350 | 10.4 | 18.2 | 0.00 | 0.00 | 0.00 | 26 | 1008.0 |
| 20260508191506 | 74 | 344 | 9.6 | 14.8 | 0.00 | 0.00 | 0.00 | 27 | 1008.4 |
| 20260508190005 | 74 | 333 | 10.4 | 15.6 | 0.00 | 0.00 | 0.00 | 27 | 1008.5 |
| 20260508184620 | 73 | 331 | 9.6 | 18.2 | 0.00 | 0.00 | 0.00 | 27 | 1008.7 |
| 20260508183044 | 73 | 330 | 9.6 | 15.6 | 0.00 | 0.00 | 0.00 | 29 | 1008.8 |
| 20260508181549 | 73 | 344 | 8.7 | 15.6 | 0.00 | 0.00 | 0.00 | 28 | 1009.0 |
| 20260508180033 | 72 | 327 | 10.4 | 18.2 | 0.00 | 0.00 | 0.00 | 26 | 1008.9 |
| 20260508174529 | 72 | 338 | 8.7 | 18.2 | 0.00 | 0.00 | 0.00 | 29 | 1009.0 |
| 20260508173025 | 71 | 326 | 7.8 | 17.4 | 0.00 | 0.00 | 0.00 | 28 | 1008.9 |
| 20260508171513 | 71 | 296 | 9.6 | 15.6 | 0.00 | 0.00 | 0.00 | 30 | 1008.8 |
| 20260508170002 | 70 | 340 | 7.0 | 13.9 | 0.00 | 0.00 | 0.00 | 36 | 1009.0 |
| 20260508164600 | 69 | 355 | 5.2 | 10.4 | 0.00 | 0.00 | 0.00 | 36 | 1009.0 |
| 20260508163047 | 67 | 26 | 2.6 | 7.0 | 0.00 | 0.00 | 0.00 | 42 | 1009.1 |
| 20260508161549 | 66 | 26 | 3.5 | 7.0 | 0.00 | 0.00 | 0.00 | 40 | 1009.0 |
| 20260508160032 | 65 | 348 | 6.1 | 8.7 | 0.00 | 0.00 | 0.00 | 44 | 1009.0 |
| 20260508154510 | 64 | 11 | 3.5 | 7.8 | 0.00 | 0.00 | 0.00 | 44 | 1008.9 |
| 20260508153004 | 62 | 45 | 0.9 | 5.2 | 0.00 | 0.00 | 0.00 | 45 | 1009.0 |
| 20260508151521 | 61 | 42 | 2.6 | 3.5 | 0.00 | 0.00 | 0.00 | 49 | 1008.8 |
| 20260508150011 | 59 | 338 | 0.0 | 3.5 | 0.00 | 0.00 | 0.00 | 48 | 1008.7 |
| 20260508144620 | 57 | 317 | 0.9 | 2.6 | 0.00 | 0.00 | 0.00 | 51 | 1008.7 |
| 20260508143045 | 56 | 287 | 0.9 | 2.6 | 0.00 | 0.00 | 0.00 | 54 | 1008.7 |
| 20260508141547 | 54 | 273 | 0.9 | 1.7 | 0.00 | 0.00 | 0.00 | 56 | 1008.7 |
| 20260508140008 | 52 | 273 | 0.0 | 1.7 | 0.00 | 0.00 | 0.00 | 62 | 1008.6 |
| 20260508134600 | 50 | 273 | 0.0 | 1.7 | 0.00 | 0.00 | 0.00 | 64 | 1008.6 |
| 20260508133110 | 49 | 273 | 0.0 | 0.0 | 0.00 | 0.00 | 0.00 | 63 | 1008.4 |
| 20260508131536 | 48 | 273 | 0.0 | 0.0 | 0.00 | 0.00 | 0.00 | 61 | 1008.2 |
| 20260508130027 | 48 | 273 | 0.0 | 2.6 | 0.00 | 0.00 | 0.00 | 60 | 1008.2 |
| 20260508124539 | 48 | 273 | 0.0 | 1.7 | 0.00 | 0.00 | 0.00 | 59 | 1008.0 |
| 20260508123029 | 48 | 273 | 0.0 | 2.6 | 0.00 | 0.00 | 0.00 | 58 | 1007.8 |
| 20260508121520 | 49 | 273 | 0.9 | 2.6 | 0.00 | 0.00 | 0.00 | 57 | 1007.7 |
| 20260508120017 | 50 | 273 | 1.7 | 2.6 | 0.00 | 0.00 | 0.00 | 56 | 1007.7 |
| 20260508114508 | 50 | 273 | 1.7 | 3.5 | 0.00 | 0.00 | 0.00 | 54 | 1007.6 |
| 20260508113109 | 51 | 273 | 1.7 | 5.2 | 0.00 | 0.00 | 0.00 | 53 | 1007.6 |
| 20260508111607 | 51 | 300 | 2.6 | 4.3 | 0.00 | 0.00 | 0.00 | 53 | 1007.5 |
| 20260508110055 | 51 | 312 | 2.6 | 5.2 | 0.00 | 0.00 | 0.00 | 52 | 1007.4 |
| 20260508104539 | 51 | 263 | 3.5 | 5.2 | 0.00 | 0.00 | 0.00 | 51 | 1007.3 |
| 20260508103029 | 52 | 261 | 1.7 | 3.5 | 0.00 | 0.00 | 0.00 | 49 | 1007.1 |
| 20260508101511 | 52 | 261 | 1.7 | 3.5 | 0.00 | 0.00 | 0.00 | 49 | 1007.1 |
| 20260508100003 | 52 | 261 | 4.3 | 6.1 | 0.00 | 0.00 | 0.00 | 49 | 1007.2 |
| 20260508094602 | 52 | 259 | 4.3 | 6.1 | 0.00 | 0.00 | 0.00 | 48 | 1007.1 |
| 20260508093058 | 53 | 261 | 2.6 | 6.1 | 0.00 | 0.00 | 0.00 | 47 | 1006.9 |
| 20260508091609 | 54 | 263 | 3.5 | 6.1 | 0.00 | 0.00 | 0.00 | 47 | 1007.0 |
| 20260508090110 | 54 | 262 | 4.3 | 6.1 | 0.00 | 0.00 | 0.00 | 47 | 1006.9 |
| 20260508084548 | 55 | 274 | 3.5 | 6.1 | 0.00 | 0.00 | 0.00 | 46 | 1007.1 |
| 20260508083047 | 55 | 268 | 2.6 | 6.1 | 0.00 | 0.00 | 0.00 | 46 | 1007.2 |
| 20260508081539 | 54 | 263 | 4.3 | 7.0 | 0.00 | 0.00 | 0.00 | 46 | 1007.2 |
| 20260508080042 | 54 | 258 | 5.2 | 7.8 | 0.00 | 0.00 | 0.00 | 45 | 1007.1 |
| 20260508074539 | 54 | 247 | 4.3 | 7.0 | 0.00 | 0.00 | 0.00 | 46 | 1007.1 |
| 20260508073018 | 54 | 247 | 3.5 | 6.1 | 0.00 | 0.00 | 0.00 | 46 | 1007.1 |
| 20260508071510 | 55 | 248 | 3.5 | 7.0 | 0.00 | 0.00 | 0.00 | 45 | 1007.1 |
| 20260508070059 | 56 | 252 | 2.6 | 4.3 | 0.00 | 0.00 | 0.00 | 45 | 1007.1 |
| 20260508064556 | 56 | 254 | 2.6 | 4.3 | 0.00 | 0.00 | 0.00 | 43 | 1007.2 |
| 20260508063056 | 57 | 252 | 2.6 | 6.1 | 0.00 | 0.00 | 0.00 | 43 | 1007.1 |
| 20260508061550 | 57 | 263 | 3.5 | 7.8 | 0.00 | 0.00 | 0.00 | 43 | 1007.2 |
| 20260508060036 | 57 | 327 | 1.7 | 7.0 | 0.00 | 0.00 | 0.00 | 42 | 1007.2 |
| 20260508054527 | 57 | 237 | 2.6 | 6.1 | 0.00 | 0.00 | 0.00 | 42 | 1007.2 |
| 20260508053122 | 57 | 232 | 1.7 | 3.5 | 0.00 | 0.00 | 0.00 | 42 | 1007.0 |
| 20260508051510 | 58 | 232 | 2.6 | 5.2 | 0.00 | 0.00 | 0.00 | 41 | 1006.9 |
| 20260508050004 | 58 | 232 | 1.7 | 4.3 | 0.00 | 0.00 | 0.00 | 41 | 1007.0 |
| 20260508044558 | 58 | 232 | 2.6 | 5.2 | 0.00 | 0.00 | 0.00 | 41 | 1006.9 |
| 20260508043103 | 58 | 227 | 2.6 | 5.2 | 0.00 | 0.00 | 0.00 | 43 | 1006.7 |
| 20260508041610 | 57 | 220 | 2.6 | 4.3 | 0.00 | 0.00 | 0.00 | 42 | 1006.8 |
| 20260508040043 | 57 | 236 | 1.7 | 4.3 | 0.00 | 0.00 | 0.00 | 43 | 1006.7 |
| 20260508034533 | 58 | 238 | 1.7 | 3.5 | 0.00 | 0.00 | 0.00 | 43 | 1006.7 |
| 20260508033026 | 59 | 238 | 0.9 | 3.5 | 0.00 | 0.00 | 0.00 | 44 | 1006.5 |
| 20260508031535 | 60 | 238 | 1.7 | 6.1 | 0.00 | 0.00 | 0.00 | 42 | 1006.3 |
| 20260508030035 | 61 | 262 | 2.6 | 5.2 | 0.00 | 0.00 | 0.00 | 41 | 1006.2 |
| 20260508024522 | 64 | 266 | 0.0 | 3.5 | 0.00 | 0.00 | 0.00 | 39 | 1006.1 |
| 20260508023022 | 66 | 336 | 0.9 | 1.7 | 0.00 | 0.00 | 0.00 | 35 | 1006.0 |
| 20260508021514 | 68 | 336 | 0.0 | 1.7 | 0.00 | 0.00 | 0.00 | 34 | 1006.0 |
| 20260508020020 | 70 | 336 | 1.7 | 4.3 | 0.00 | 0.00 | 0.00 | 30 | 1006.0 |
| 20260508014506 | 72 | 336 | 2.6 | 5.2 | 0.00 | 0.00 | 0.00 | 26 | 1005.9 |
| 20260508013059 | 73 | 336 | 0.0 | 3.5 | 0.00 | 0.00 | 0.00 | 26 | 1005.9 |
| 20260508011556 | 73 | 330 | 1.7 | 5.2 | 0.00 | 0.00 | 0.00 | 25 | 1006.0 |
| 20260508010049 | 72 | 25 | 1.7 | 4.3 | 0.00 | 0.00 | 0.00 | 28 | 1006.0 |